Home   Weather   Clacton-on-Sea   Past weeks
Flag for United Kingdom

Past Weather in Clacton-on-Sea, England, United Kingdom — Yesterday and Last 2 Weeks

Now
58 °F

Light rain. Cloudy.


Feels Like: 57 °F
Forecast: 64 / 55 °F
Wind: 6 mph from Northwest

Location: Shoeburyness

Current Time: Jun 19, 2019 at 10:15:24 am

Latest Report: Jun 19, 2019 at 9:00 am


Visibility: 3 mi

Pressure: 29.74 "Hg

Humidity: 98%

Dew Point: 57 °F

Location of Clacton-on-SeaLocation

Past Weather in Clacton-on-Sea — Graph

°F

Clacton-on-Sea Temperature Yesterday

Maximum temperature yesterday: 65 °F (at 11:00 am)
Minimum temperature yesterday: 51 °F (at 4:00 am)
Average temperature yesterday: 60 °F

High & Low Weather Summary for the Past Weeks

 TemperatureHumidityPressure
High71 °F (Jun 17, 3:00 pm)98% (Jun 10, 8:00 am)30.19 "Hg (Jun 10, 8:00 am)
Low47 °F (Jun 9, 5:00 am)41% (Jun 6, 2:00 pm)29.44 "Hg (Jun 7, 9:00 pm)
Average58 °F79%29.87 "Hg
* Reported Jun 4 9:00 am — Jun 19 9:00 am, Clacton-on-Sea. Weather by CustomWeather, © 2019

Note: Actual official high and low records may vary slightly from our data, if they occured in-between our weather recording intervals... More about our weather records

Advertising

Clacton-on-Sea Weather History for the Previous 24 Hours

Scroll right to see more
 ConditionsComfort  
Time TempWeatherWind HumidityBarometerVisibility
9:00 am
Wed, Jun 19
58 °FLight rain. Cloudy.6 mph98%29.74 "Hg2 mi
8:00 am58 °FFog.3 mph98%29.75 "Hg4 mi
7:00 am58 °FFog.6 mph98%29.72 "Hg2 mi
6:00 am57 °FFog.3 mph98%29.72 "Hg2 mi
5:00 am57 °FFog.7 mph98%29.72 "Hg3 mi
4:00 am57 °FFog.5 mph97%29.74 "Hg4 mi
3:00 am57 °FCool.3 mph97%29.76 "Hg4 mi
2:00 am58 °FLight rain. Overcast.3 mph96%29.79 "Hg4 mi
1:00 am58 °FRain showers. Overcast.5 mph94%29.84 "Hg4 mi
12:00 am57 °FCool.3 mph92%29.84 "Hg11 mi
11:00 pm
Tue, Jun 18
58 °FCool.7 mph86%29.84 "Hg19 mi
10:00 pm58 °FCool.5 mph87%29.86 "Hg17 mi
9:00 pm59 °FCool.6 mph83%29.85 "Hg22 mi
8:00 pm61 °FCool.5 mph80%29.88 "Hg28 mi
7:00 pm63 °FMild.6 mph81%29.87 "Hg19 mi
6:00 pm62 °FCool.6 mph85%29.89 "Hg14 mi
5:00 pm63 °FMild.8 mph81%29.90 "Hg18 mi
4:00 pm65 °FMild.9 mph75%29.92 "Hg16 mi
3:00 pm65 °FRain showers. Cloudy.5 mph78%29.94 "Hg22 mi
2:00 pm65 °FMild.8 mph73%29.95 "Hg17 mi
1:00 pm64 °FMild.6 mph71%29.96 "Hg28 mi
12:00 pm65 °FMild.7 mph66%29.97 "Hg22 mi
11:00 am65 °FMild.5 mph63%29.97 "Hg28 mi
10:00 am63 °FMild.6 mph61%29.98 "Hg25 mi
Weather by CustomWeather, © 2019

See weather overview